Kahului, HI

3:55 AM HST on January 16, 2017 (GMT -1000)
Kahului

Weather History for PHOG - October, 2012

Change the Weather History Date:

Saturday, October 27, 2012

  Actual Average Record
Temperature  
Mean Temperature 77 °F 78 °F  
Max Temperature 87 °F 86 °F 94 °F (1996)
Min Temperature 66 °F 69 °F 60 °F (1952)
Degree Days  
Heating Degree Days 0 0  
Month to date heating degree days 0 0  
Since 1 July heating degree days 12 0  
Cooling Degree Days 12 13  
Month to date cooling degree days 351 360  
Year to date cooling degree days 3293 3328  
Growing Degree Days 25 (Base 50)    
Moisture  
Dew Point 71 °F    
Average Humidity 83    
Maximum Humidity 100    
Minimum Humidity 65    
Precipitation  
Precipitation 0.00 in 0.05 in 2.22 in (1982)
Month to date precipitation 0.01 1.00  
Year to date precipitation 4.71 12.08  
Snow  
Snow 0.00 in - - ()
Month to date snowfall 0.0  
Since 1 July snowfall 0.0  
Since 1 September snowfall 0.0  
Snow Depth 0.00 in    
Sea Level Pressure  
Sea Level Pressure 30.05 in    
Wind  
Wind Speed 10 mph (ENE)    
Max Wind Speed 23 mph    
Max Gust Speed 26 mph    
Visibility 10 miles    
Events      
T = Trace of Precipitation, MM = Missing Value Source: NWS Daily Summary

Daily Weather History Graph

Daily Weather History Graph

Search for Another Location

Airport or City:

Trip Planner

Search our weather history database for the weather conditions in past years. The results will help you decide how hot, cold, wet, or windy it might be!

Date:

Astronomy

Oct. 27, 2012 Rise Set
Actual Time 6:26 AM HST 5:52 PM HST
Civil Twilight 6:03 AM HST 6:15 PM HST
Nautical Twilight 5:37 AM HST 6:41 PM HST
Astronomical Twilight 5:11 AM HST 7:07 PM HST
Moon 4:38 PM HST (10/27) 4:41 AM HST (10/27)
Length of Visible Light 12h 11m
Length of Day
11h 26m
Waxing Gibbous, 97% of the Moon is Illuminated
Oct 27
Waxing Gibbous
Oct 29
Full
Nov 6
Last Quarter
Nov 13
New
Nov 20
First Quarter

Hourly Weather History & Observations

Time (HST) Temp. Heat Index Dew Point Humidity Pressure Visibility Wind Dir Wind Speed Gust Speed Precip Events Conditions
12:54 AM 69.1 °F - 66.9 °F 93% 30.07 in 10.0 mi SE 3.5 mph - N/A   Clear
1:54 AM 68.0 °F - 64.9 °F 90% 30.06 in 10.0 mi SSE 4.6 mph - N/A   Clear
3:54 AM 68.0 °F - 64.9 °F 90% 30.05 in 10.0 mi East 5.8 mph - N/A   Clear
4:54 AM 66.0 °F - 66.0 °F 100% 30.05 in 10.0 mi SSE 5.8 mph - N/A   Clear
5:54 AM 66.9 °F - 66.0 °F 97% 30.06 in 10.0 mi SE 5.8 mph - N/A   Clear
6:54 AM 66.9 °F - 64.9 °F 93% 30.07 in 10.0 mi SE 5.8 mph - N/A   Clear
7:54 AM 75.0 °F - 66.9 °F 76% 30.09 in 10.0 mi Calm Calm - N/A   Clear
8:54 AM 80.1 °F 83.6 °F 71.1 °F 74% 30.10 in 10.0 mi NNE 5.8 mph - N/A   Partly Cloudy
9:54 AM 84.0 °F 91.2 °F 73.9 °F 72% 30.09 in 10.0 mi NNE 15.0 mph - N/A   Partly Cloudy
10:54 AM 84.0 °F 91.9 °F 75.0 °F 74% 30.08 in 10.0 mi NE 16.1 mph - N/A   Scattered Clouds
11:54 AM 86.0 °F 93.8 °F 73.9 °F 67% 30.06 in 10.0 mi NE 19.6 mph - N/A   Scattered Clouds
12:54 PM 84.9 °F 93.3 °F 75.0 °F 72% 30.03 in 10.0 mi NE 20.7 mph - N/A   Scattered Clouds
1:54 PM 84.0 °F 90.2 °F 73.0 °F 69% 30.00 in 10.0 mi NE 20.7 mph 25.3 mph N/A   Partly Cloudy
2:54 PM 82.9 °F 89.4 °F 73.9 °F 74% 30.00 in 10.0 mi NE 19.6 mph - N/A   Partly Cloudy
3:54 PM 82.0 °F 87.4 °F 73.0 °F 74% 29.99 in 10.0 mi NE 21.9 mph - N/A   Partly Cloudy
4:54 PM 80.1 °F 84.5 °F 73.9 °F 81% 30.01 in 10.0 mi NNE 19.6 mph - N/A   Partly Cloudy
5:54 PM 78.1 °F - 73.0 °F 84% 30.02 in 10.0 mi NE 13.8 mph - N/A   Partly Cloudy
6:54 PM 75.9 °F - 72.0 °F 87% 30.05 in 10.0 mi NE 11.5 mph - N/A   Clear
7:54 PM 75.9 °F - 73.0 °F 91% 30.06 in 10.0 mi NE 12.7 mph - N/A   Clear
8:54 PM 75.9 °F - 72.0 °F 87% 30.06 in 10.0 mi NE 13.8 mph - N/A   Clear
9:54 PM 75.9 °F - 72.0 °F 87% 30.07 in 10.0 mi NE 15.0 mph - N/A   Clear
10:54 PM 75.9 °F - 72.0 °F 87% 30.07 in 10.0 mi NE 13.8 mph 19.6 mph N/A   Mostly Cloudy
11:54 PM 75.9 °F - 71.1 °F 85% 30.05 in 10.0 mi NE 12.7 mph - N/A   Overcast